RJOP  Komatsujima Ab Airport

Add Bookmark

Komatsujima AB, Japan

Status
Operational
Latitude Longitude
34° 0' 0" N 134° 37' 48" E
34.000000 134.630005
Local (DST + 9) UTC (GMT + 9)
Oct 23, 2014 02:09 Oct 23, 2014 05:09
Sunrise-Sunset Local UTC
Begin Civil Twilight 05:46 20:46
Sunrise 06:11 21:11
Sunset 05:20 08:20
End Civil Twilight 05:45 08:45

Current Weather

METAR Observed VFR
RJOP 230227Z 36015G25KT 9999 FEW030 19/09 Q1017 Thu, Oct 23, 2014 @ 02:27 UTC
(2 Hours, 42 Minutes ago)
Visual Flight Rules
Wind Visibility Clouds Conditions
360° at 15 knots (28 kph)
Gusting to 25 knots (46 kph)
10 km or more
  • Few at 3,000' AGL
  • No significant weather
Temperatures Readings Precipitation
Current Temp 19°C (66°F)
Dewpoint 9°C (48°F)
Humidity 52%
Altimeter 30.03"Hg
Sea Level Pressure 1017mb
Field Elevation 19.69'
None Recorded

Additional weather within a 92.6km radius of RJOP

Map ICAO Location
RJOS 14.8km N (360°)
RJOT 61.3km W (293°)
RJBB 73.7km N (050°)
RJBD 77.4km E (119°)
RJBE 88.9km N (038°)

24 Hour Weather History

Loading
-

24 Hour Weather Graphs

Loading
-

CheckWX.com is intended as a tool to help pilots better visualize weather data. It is not intended as a substitute for an official weather briefing obtained from a Flight Service Station. CheckWX.com does not meet the FAA requirements for an official pre-flight weather briefing. Therefore, it's important that pilots still call and obtain an official FSS pre-flight weather briefing.